User: anonymous   Login
Location: Unspecified
(0.0000°N, 0.0000°E)
Time: 02:39:49
(UTC+02:00)
Language:

GPS 2-12 Rocket1 - Orbit

View from above orbital plane
View from above orbital plane
View from above satellite
View from above satellite

Ground track
Ground track

The orbit data is extracted from the following two-line orbital elements,

1 21891U 92009B   16145.93587126 +.00000695 +00000-0 +34638-4 0  9997
2 21891 019.9978 002.6101 0047271 328.9269 030.8359 14.82650852287642
Epoch (UTC): 24 May 2016 22:27:39
Eccentricity: 0.0047271
inclination: 19.9978°
perigee height: 588 km
apogee height: 654 km
right ascension of ascending node: 2.6101°
argument of perigee: 328.9269°
revolutions per day: 14.82650852
mean anomaly at epoch: 30.8359°
orbit number at epoch: 28764

The dashed part of the orbit path shows where the satellite is in the earth's shadow,  

DLR